Regional Weather Roundup
Issued by NWS

Home | Current Version | Previous Version | Graphics & Text | Print | Product List | Glossary On
Versions: 1 2 3 4 5 6 7 8 9 10 11 12 13 14 15 16 17 18 19 20 21 22 23 24 25 26 27 28 29 30 31 32 33 34 35 36 37 38 39 40 41 42 43 44 45 46 47 48 49 50
000
ASUS45 KTFX 251319
RWRMT
MONTANA HOURLY WEATHER ROUNDUP
NATIONAL WEATHER SERVICE GREAT FALLS MT
619 AM MST THU DEC 25 2014

NOTE: "FAIR" INDICATES FEW OR NO CLOUDS BELOW 12000 FEET WITH NO
SIGNIFICANT WEATHER AND/OR OBSTRUCTIONS TO VISIBILITY.

* THESE STATIONS ARE NOT UNDER NWS QUALITY CONTROL. THEY DO NOT
   REPORT WEATHER SUCH AS PRECIPITATION OR FOG.

MTZ001>007-043-251400-
WEST OF THE DIVIDE
CITY           SKY/WX    TMP DP  RH WIND       PRES   REMARKS
KALISPELL      CLEAR     21  19  92 W3        29.84R
MISSOULA       CLOUDY    28  27  96 NW9       29.82R WCI  19
BUTTE          CLOUDY    21  16  81 NW12      29.66R WCI   9
MULLAN PASS    CLOUDY    23  19  85 CALM      29.73R
* ESSEX        N/A       18  16  92 N/A        N/A
* HAMILTON APT CLOUDY    28  27  96 CALM      29.78R
* LIBBY APT    CLEAR     27  25  92 CALM      29.89R
* LINCOLN      N/A       23  19  85 E5G11      N/A   WCI  16
* LOOKOUT PASS N/A       25  23  92 N2         N/A
* POLSON       N/A       27  26  96 N/A        N/A
* RONAN APT    MOCLDY    30  28  92 N/A        N/A
* SEELEY LAKE  N/A       23  21  92 SE2        N/A
* THOMP F APT  PTCLDY    23  18  81 NW12G25    N/A   WCI  11
$$

MTZ008-052>055-251400-
SOUTHWEST MONTANA
CITY           SKY/WX    TMP DP  RH WIND       PRES   REMARKS
BOZEMAN        CLOUDY    27  19  72 NW8       29.67R WCI  19
DILLON         CLOUDY    25  19  78 N16       29.61R WCI  12
* W YELLOWSTON CLOUDY    21  17  84 N5G12      N/A   WCI  14
* THREE FORKS  CLOUDY    28  12  51 N17G22     N/A   WCI  16
* BOULDER HILL N/A       20  17  88 N19G27     N/A   WCI   5
* MONIDA PASS  N/A       20  17  88 NW20G26    N/A   WCI   4
* RAYNOLDS PAS N/A       20  18  92 NW31G40    N/A   WCI   1
* WHITEHALL    N/A       26  21  81 N11G20     N/A   WCI  16
* WISE RIVER   N/A       22  14  71 E5G12      N/A   WCI  15
$$

MTZ009>010-012-014-046-048-049-054-251400-
EAST SLOPES AND CENTRAL MONTANA
CITY           SKY/WX    TMP DP  RH WIND       PRES   REMARKS
CUT BANK       PTCLDY    12  10  92 NW12      29.81R WCI  -2
GREAT FALLS    N/A       21  19  92 NW5       29.82R WCI  14
HELENA         CLOUDY    27  21  78 NW15      29.77R WCI  15
MALMSTROM AFB  CLOUDY    21  19  92 NW8       29.85R WCI  11
* CONRAD       PTCLDY    23  19  85 W6         N/A   WCI  16
* DEARBORN     N/A       25  22  88 S5G10      N/A   WCI  19
* EAST GLACIER N/A       18  16  92 N6         N/A   WCI  10
* MONARCH      N/A       19  16  88 NW8        N/A   WCI   9
* PENDROY      N/A       19  16  88 N9         N/A   WCI   8
* SWEET GRASS  N/A       21  21 100 N6         N/A   WCI  13
* WHITE SULPH  N/A       22  19  88 NW8G14     N/A   WCI  13
$$

MTZ011-013-016-021-035-040-045-047-050-051-251400-
NORTH CENTRAL MONTANA
CITY           SKY/WX    TMP DP  RH WIND       PRES   REMARKS
HAVRE          CLOUDY    27  19  72 CALM      29.85R
LEWISTOWN      CLOUDY    25  19  78 NW9       29.76R WCI  16
* N BAR RANCH  CLOUDY    23  19  85 NW18      29.72R WCI   9
* CHINOOK      PTCLDY    27  19  72 NW6       29.85R WCI  20
* CHESTER      N/A       22  18  85 N4         N/A
* DENTON       N/A       24  22  92 NW9        N/A   WCI  14
* JUDITH GAP   N/A       21  21 100 VRB30G37    N/A   WCI   3
* LOMA         N/A       25  21  85 NW8        N/A   WCI  16
$$

MTZ017>020-022>027-061-062-251400-
NORTHEAST MONTANA
CITY           SKY/WX    TMP DP  RH WIND       PRES   REMARKS
GLASGOW        CLOUDY    25  19  78 NW14      29.78R WCI  13
GLENDIVE       CLOUDY    27  21  78 NW12      29.74R WCI  16
JORDAN         CLOUDY    27  21  78 N14       29.77R WCI  16
SIDNEY         CLOUDY    27  23  85 NW6       29.75R WCI  20
WOLF POINT     CLOUDY    27  19  72 N10       29.79R WCI  18
* BEAVER HILL  N/A       22  21  96 NW6        N/A   WCI  14
* CIRCLE       N/A       27  22  81 NW6        N/A   WCI  20
* LINDSAY DVD  N/A       24  20  85 NW17       N/A   WCI  11
* NAVAJO       N/A       21  18  88 NW17G27    N/A   WCI   7
* PLENTYWOOD A PTCLDY    23  19  85 NW16G22   29.72R WCI  10
* POPLAR APT   PTCLDY    25  19  78 N/A       29.76R
* SACO         N/A       26  20  78 NW16       N/A   WCI  13
$$

MTZ028>042-056>058-251400-
SOUTHCENTRAL AND SOUTHEAST MONTANA
CITY           SKY/WX    TMP DP  RH WIND       PRES   REMARKS
BAKER          CLOUDY    25  21  85 NW10      29.68R WCI  15
BILLINGS       LGT SNOW  27  25  92 N10       29.74R WCI  18
LIVINGSTON     LGT SNOW  27  23  85 E17G25    29.67R VSB 1    WCI  14
MILES CITY     CLOUDY    27  21  78 N16G23    29.73R WCI  15
* BIG TIMBER A CLOUDY    25  23  92 NE14      29.72R VSB 1/2  WCI  13
* FORSYTH APT  CLOUDY    27  25  92 N9        29.75R WCI  18
* LAUREL APT   CLOUDY    27  19  72 N/A        N/A
* ROUNDUP APT  CLOUDY    27  21  78 N/A        N/A
* ALZADA       N/A       28  27  96 VRB4       N/A
* HYSHAM       N/A       25  23  92 VRB4G11    N/A
* REED POINT   N/A       27  26  96 E2         N/A
* ROSCOE HILL  N/A       22  19  88 VRB9G14    N/A   WCI  12
$$

REGIONAL REPORTS...DAKOTAS
CITY           SKY/WX    TMP DP  RH WIND       PRES   REMARKS
WILLISTON      CLOUDY    27  21  78 N15       29.71R WCI  15
DICKINSON      CLOUDY    25  21  85 NW8       29.64R WCI  16
BEACH          CLOUDY    23  23 100 NW12      29.69R WCI  11
CROSBY         CLOUDY    25  25 100 NW16G25   29.71R WCI  12
TIOGA          N/A       23  23 100 NW16G24   29.70R WCI  10
WATFORD CITY   CLOUDY    27  25  92 NW10      29.69R WCI  18
BISMARCK       MOCLDY    25  21  85 NW9       29.65R WCI  16
GRAND FORKS    CLOUDY    27  23  85 W10       29.60R WCI  18
FARGO          CLOUDY    27  23  85 NW9       29.62R WCI  18
BUFFALO SD     CLOUDY    28  25  89 N18       29.55R WCI  15
RAPID CITY     LGT SNOW  30  28  92 N15       29.59R VSB 1 1/2 WCI  19
$$

REGIONAL REPORTS...WYOMING/IDAHO/WASHINGTON
CITY           SKY/WX    TMP DP  RH WIND       PRES   REMARKS
GILLETTE       LGT SNOW  28  25  89 N18       29.57R VSB 1 3/4 WCI  15
SHERIDAN       LGT SNOW  28  27  96 NW13      29.67R VSB 1 1/4 WCI  17
CODY           CLOUDY    25  21  85 N22G30    29.59R VSB 3    WCI  10
YELLOWSTONE LA CLOUDY    19  14  81 N/A       29.43R
SALMON         CLOUDY    30  21  69 N13       29.67R WCI  20
MULLAN PASS    CLOUDY    23  19  85 CALM      29.73S
SAND POINT     PTCLDY    28  28 100 CALM      29.91R
SPOKANE        CLEAR     25  21  85 S5        29.90R WCI  19
$$

REGIONAL REPORTS...ALBERTA
CITY           SKY/WX    TMP DP  RH WIND       PRES   REMARKS
CALGARY        FOG       21  19  92 SE5       29.81R WCI  14
LETHBRIDGE     MOCLDY    25  23  92 NE5       29.85R WCI  19
MEDICINE HAT   CLOUDY    23  21  92 NW10      29.88R WCI  13
EDMONTON       LGT SNOW  10   9  96 SW2       29.91R
WATERTON GATE  N/A       14  10  84 SW6        N/A   WCI   5
CARDSTON       N/A       19  18  96 SW6        N/A   WCI  11
MILK RIVER     N/A       23  21  92 N3         N/A
$$

REGIONAL REPORTS...SASKATCHEWAN
CITY           SKY/WX    TMP DP  RH WIND       PRES   REMARKS
SWIFT CURRENT  CLOUDY    16  14  92 NW15      29.79R WCI   1
REGINA         LGT SNOW  21  19  92 NW17      29.73R WCI   7
VAL MARIE      N/A       23  19  85 N20G25     N/A   WCI   8
ASSINIBOIA     N/A       21  18  88 NW17       N/A   WCI   7

$$




USA.gov is the U.S. government's official web portal to all federal, state and local government web resources and services.